Location: Utrecht
(52.0907°N, 5.1214°E)
Time: 13:02:16
(UTC+02:00)

SPROUT - Pass Details

Date: 07 July 2022
Orbit: 588 x 598 km, 97.9° (Epoch: 18 August)

Event Time Altitude Azimuth Distance (km) Brightness Sun altitude
Exits shadow 03:16:13 17° 225° (SW) 1,503 ? -12.7°
Maximum altitude 03:18:16 25° 266° (W) 1,212 ? -12.5°
Drops below altitude 10° 03:21:45 10° 323° (NW) 1,932 ? -12.3°
Sets 03:24:15 0° 337° (NNW) 2,841 ? -12.2°
